TimePST,TemperatureF,Dew PointF,Humidity,Sea Level PressureIn,VisibilityMPH,Wind Direction,Wind SpeedMPH,Gust SpeedMPH,PrecipitationIn,Events,Conditions,WindDirDegrees,DateUTC
12:53 AM,45.0,42.1,90,29.60,7.0,SSE,10.4,-,0.03,Rain,Light Rain,150,2012-12-01 08:53:00
1:53 AM,44.1,42.1,93,29.58,10.0,SE,9.2,-,0.00,,Overcast,140,2012-12-01 09:53:00
2:53 AM,45.0,41.0,86,29.58,10.0,SSE,13.8,-,N/A,,Mostly Cloudy,150,2012-12-01 10:53:00
3:53 AM,45.0,41.0,86,29.57,10.0,SSE,8.1,-,0.00,Rain,Light Rain,160,2012-12-01 11:53:00
4:53 AM,46.0,39.9,79,29.57,10.0,SSE,13.8,-,0.00,,Overcast,150,2012-12-01 12:53:00
5:53 AM,46.0,39.9,79,29.57,10.0,South,10.4,19.6,0.00,,Overcast,170,2012-12-01 13:53:00
6:53 AM,48.0,39.0,71,29.58,10.0,SSW,13.8,24.2,0.00,,Mostly Cloudy,200,2012-12-01 14:53:00
7:53 AM,46.9,37.9,71,29.60,10.0,SSW,21.9,31.1,0.01,Rain,Light Rain,200,2012-12-01 15:53:00
8:53 AM,46.0,37.0,71,29.62,10.0,SSW,20.7,27.6,0.00,,Mostly Cloudy,200,2012-12-01 16:53:00
9:53 AM,46.0,39.0,76,29.65,10.0,SSW,25.3,32.2,N/A,,Mostly Cloudy,210,2012-12-01 17:53:00
10:53 AM,46.9,37.0,68,29.67,10.0,SW,25.3,32.2,N/A,,Mostly Cloudy,220,2012-12-01 18:53:00
11:53 AM,46.9,35.1,63,29.68,10.0,SW,25.3,29.9,N/A,,Scattered Clouds,230,2012-12-01 19:53:00
12:53 PM,48.0,30.9,52,29.68,10.0,SW,24.2,31.1,N/A,,Scattered Clouds,230,2012-12-01 20:53:00
1:53 PM,48.0,28.9,48,29.69,10.0,SW,21.9,-,N/A,,Scattered Clouds,220,2012-12-01 21:53:00
2:53 PM,45.0,30.9,58,29.72,10.0,SW,15.0,23.0,N/A,,Mostly Cloudy,220,2012-12-01 22:53:00
3:53 PM,43.0,33.1,68,29.71,10.0,SSW,8.1,-,N/A,,Mostly Cloudy,200,2012-12-01 23:53:00
4:53 PM,41.0,33.1,73,29.70,10.0,ESE,3.5,-,N/A,,Mostly Cloudy,120,2012-12-02 00:53:00
5:53 PM,39.9,34.0,79,29.69,10.0,SSE,5.8,-,N/A,,Overcast,160,2012-12-02 01:53:00
6:53 PM,39.0,34.0,82,29.67,10.0,NE,3.5,-,N/A,,Overcast,40,2012-12-02 02:53:00
7:53 PM,39.9,35.1,83,29.66,10.0,SSE,8.1,-,N/A,,Overcast,150,2012-12-02 03:53:00
8:53 PM,41.0,35.1,79,29.64,10.0,SE,8.1,-,0.00,Rain,Light Rain,140,2012-12-02 04:53:00
9:53 PM,39.9,37.0,89,29.58,10.0,ESE,8.1,-,0.02,,Overcast,120,2012-12-02 05:53:00
10:53 PM,42.1,37.0,82,29.57,10.0,SSE,8.1,-,N/A,,Overcast,150,2012-12-02 06:53:00
11:53 PM,41.0,37.0,86,29.54,10.0,SE,5.8,-,0.00,Rain,Light Rain,130,2012-12-02 07:53:00